Volk, WI

12:43 AM CST on November 23, 2017 (GMT -0600)
Volk

Weather History for KVOK - June, 2013

Change the Weather History Date:

Saturday, June 15, 2013

  Actual Average Record
Temperature  
Mean Temperature 68 °F -  
Max Temperature 79 °F 73 °F 89 °F (2007)
Min Temperature 58 °F 59 °F 44 °F (1999)
Cooling Degree Days 4    
Growing Degree Days 18 (Base 50)    
Moisture  
Dew Point 63 °F    
Average Humidity 92    
Maximum Humidity 100    
Minimum Humidity 68    
Precipitation  
Precipitation 0.58 in - - ()
Sea Level Pressure  
Sea Level Pressure 29.94 in    
Wind  
Wind Speed 7 mph (SSE)    
Max Wind Speed 16 mph    
Max Gust Speed 20 mph    
Visibility 8 miles    
Events Rain , Thunderstorm    
Averages and records for this station are not official NWS values.
T = Trace of Precipitation, MM = Missing Value Source: NWS Daily Summary

Daily Weather History Graph

Daily Weather History Graph

Search for Another Location

Airport or City:

Trip Planner

Search our weather history database for the weather conditions in past years. The results will help you decide how hot, cold, wet, or windy it might be!

Date:

Astronomy

Jun. 15, 2013 Rise Set
Actual Time 5:17 AM CDT 8:45 PM CDT
Civil Twilight 4:41 AM CDT 9:21 PM CDT
Nautical Twilight 3:54 AM CDT 10:09 PM CDT
Astronomical Twilight 2:53 AM CDT 11:09 PM CDT
Moon 12:05 PM CDT (6/15) 12:09 AM CDT (6/15)
Length of Visible Light 16h 40m
Length of Day
15h 27m
Waxing Crescent, 40% of the Moon is Illuminated
Jun 15
Waxing Crescent
Jun 16
First Quarter
Jun 23
Full
Jun 29
Last Quarter
Jul 8
New

Hourly Weather History & Observations

Time (CDT) Temp. Dew Point Humidity Pressure Visibility Wind Dir Wind Speed Gust Speed Precip Events Conditions
12:58 AM 64.4 °F 59.9 °F 85% 30.00 in 10.0 mi ESE 3.5 mph - N/A   Mostly Cloudy
1:27 AM 66.2 °F 59.0 °F 78% 30.01 in 10.0 mi SSE 4.6 mph - N/A Thunderstorm Thunderstorm
1:29 AM 66.2 °F 59.0 °F 78% 30.02 in 10.0 mi South 4.6 mph - N/A Rain , Thunderstorm Light Thunderstorms and Rain
1:34 AM 66.2 °F 60.8 °F 83% 30.02 in 5.0 mi SSE 3.5 mph - N/A Rain , Thunderstorm Light Thunderstorms and Rain
1:44 AM 64.4 °F 60.8 °F 88% 30.02 in 7.0 mi ESE 5.8 mph - N/A Rain , Thunderstorm Light Thunderstorms and Rain
1:51 AM 62.6 °F 60.8 °F 94% 30.02 in 10.0 mi ESE 5.8 mph - N/A Thunderstorm Thunderstorm
1:53 AM 62.6 °F 60.8 °F 94% 30.02 in 10.0 mi East 5.8 mph - N/A   Overcast
1:58 AM 63.3 °F 61.3 °F 93% 30.02 in 10.0 mi East 6.9 mph - 0.04 in   Overcast
2:14 AM 62.6 °F 62.6 °F 100% 30.04 in 10.0 mi SE 3.5 mph - N/A Rain Light Rain
2:19 AM 62.6 °F 62.6 °F 100% 30.05 in 9.0 mi East 1.2 mph - N/A Rain Light Rain
2:29 AM 62.6 °F 62.6 °F 100% 30.05 in 10.0 mi NE 3.5 mph - N/A Rain Light Rain
2:37 AM 62.6 °F 62.6 °F 100% 30.04 in 10.0 mi East 6.9 mph - N/A   Overcast
2:55 AM 62.6 °F 62.6 °F 100% 30.04 in 10.0 mi East 8.1 mph - N/A Thunderstorm Thunderstorm
2:58 AM 62.6 °F 60.8 °F 94% 30.04 in 9.0 mi East 6.9 mph - 0.01 in Thunderstorm Thunderstorm
2:59 AM 62.6 °F 60.8 °F 94% 30.04 in 8.0 mi East 5.8 mph - N/A Rain , Thunderstorm Thunderstorms and Rain
3:01 AM 62.6 °F 62.6 °F 100% 30.04 in 5.0 mi East 8.1 mph - N/A Rain , Thunderstorm Thunderstorms and Rain
3:06 AM 62.6 °F 62.6 °F 100% 30.03 in 2.5 mi East 10.4 mph - N/A Rain , Thunderstorm Thunderstorms and Rain
3:11 AM 62.6 °F 62.6 °F 100% 30.03 in 2.0 mi ENE 10.4 mph - N/A Rain , Thunderstorm Heavy Thunderstorms and Rain
3:15 AM 60.8 °F 60.8 °F 100% 30.02 in 2.5 mi East 13.8 mph - N/A Rain , Thunderstorm Rain
3:20 AM 60.8 °F 60.8 °F 100% 30.02 in 4.0 mi ESE 13.8 mph - N/A Rain , Thunderstorm Light Rain
3:25 AM 62.6 °F 60.8 °F 94% 30.02 in 7.0 mi ESE 12.7 mph - N/A Rain Light Rain
3:30 AM 62.6 °F 60.8 °F 94% 30.02 in 10.0 mi SE 10.4 mph - N/A Rain Light Rain
3:36 AM 62.6 °F 62.6 °F 100% 30.01 in 10.0 mi SE 9.2 mph - N/A   Overcast
3:47 AM 62.6 °F 60.8 °F 94% 30.00 in 10.0 mi SSE 9.2 mph - N/A Rain Light Rain
3:58 AM 61.9 °F 61.7 °F 99% 30.00 in 10.0 mi SSE 9.2 mph - 0.20 in Rain Light Rain
4:02 AM 62.6 °F 60.8 °F 94% 29.99 in 10.0 mi SSE 10.4 mph - N/A   Mostly Cloudy
4:09 AM 62.6 °F 60.8 °F 94% 29.99 in 10.0 mi SSE 10.4 mph - N/A   Light Drizzle
4:23 AM 60.8 °F 60.8 °F 100% 29.99 in 5.0 mi SSE 13.8 mph - N/A Rain Light Rain
4:33 AM 60.8 °F 60.8 °F 100% 29.99 in 4.0 mi SSE 12.7 mph - N/A Rain Heavy Rain
4:58 AM 60.6 °F 60.6 °F 100% 29.97 in 6.0 mi SE 10.4 mph - 0.24 in Rain Light Rain
5:28 AM 60.8 °F 60.8 °F 100% 29.98 in 6.0 mi ESE 4.6 mph - N/A Rain Light Rain
5:33 AM 60.8 °F 60.8 °F 100% 29.98 in 7.0 mi ESE 3.5 mph - N/A Rain Light Rain
5:34 AM 60.8 °F 60.8 °F 100% 29.98 in 8.0 mi SE 4.6 mph - N/A   Scattered Clouds
5:58 AM 60.8 °F 60.8 °F 100% 29.95 in 10.0 mi SSE 9.2 mph - 0.05 in   Partly Cloudy
6:58 AM 61.7 °F 61.5 °F 99% 29.94 in 10.0 mi South 9.2 mph - N/A   Clear
7:58 AM 63.3 °F 61.2 °F 93% 29.93 in 10.0 mi South 10.4 mph - N/A   Clear
8:58 AM 65.3 °F 61.3 °F 87% 29.96 in 10.0 mi WSW 8.1 mph - N/A   Clear
9:33 AM 66.2 °F 62.6 °F 88% 29.94 in 10.0 mi Variable 3.5 mph - N/A Rain Light Rain
9:45 AM 68.0 °F 62.6 °F 83% 29.93 in 10.0 mi South 10.4 mph - N/A   Clear
9:58 AM 67.6 °F 63.0 °F 85% 29.94 in 10.0 mi South 8.1 mph - 0.00 in   Clear
10:58 AM 70.3 °F 64.2 °F 81% 29.94 in 10.0 mi Variable 3.5 mph - N/A   Partly Cloudy
11:58 AM 73.9 °F 65.1 °F 74% 29.94 in 10.0 mi SW 3.5 mph - N/A   Mostly Cloudy
12:58 PM 75.9 °F 66.6 °F 73% 29.94 in 10.0 mi SSE 8.1 mph - N/A   Scattered Clouds
1:58 PM 76.8 °F 66.9 °F 71% 29.94 in 10.0 mi SSW 4.6 mph - N/A   Partly Cloudy
2:58 PM 77.5 °F 66.6 °F 69% 29.91 in 10.0 mi SW 9.2 mph - N/A   Scattered Clouds
3:58 PM 78.6 °F 67.3 °F 68% 29.87 in 10.0 mi SW 8.1 mph - N/A   Clear
4:58 PM 78.6 °F 68.2 °F 70% 29.85 in 10.0 mi WSW 6.9 mph - N/A   Scattered Clouds
5:58 PM 75.2 °F 67.3 °F 76% 29.84 in 10.0 mi SW 2.3 mph - N/A   Mostly Cloudy
6:53 PM 75.2 °F 68.0 °F 78% 29.80 in 10.0 mi Variable 2.3 mph - N/A   Mostly Cloudy
6:58 PM 74.7 °F 69.1 °F 83% 29.81 in 10.0 mi WNW 8.1 mph - N/A   Mostly Cloudy
7:07 PM 71.6 °F 66.2 °F 83% 29.82 in 10.0 mi Variable 4.6 mph - N/A Rain , Thunderstorm Light Rain
7:17 PM 69.8 °F 66.2 °F 88% 29.84 in 6.0 mi NNW 12.7 mph 18.4 mph N/A Rain Light Rain
7:19 PM 69.8 °F 66.2 °F 88% 29.84 in 7.0 mi NW 10.4 mph 18.4 mph N/A Rain Light Rain
7:24 PM 68.0 °F 68.0 °F 100% 29.83 in 6.0 mi NNW 5.8 mph 18.4 mph N/A Rain Light Rain
7:29 PM 68.0 °F 68.0 °F 100% 29.83 in 6.0 mi Variable 1.2 mph - N/A Rain Light Rain
7:34 PM 68.0 °F 68.0 °F 100% 29.83 in 9.0 mi SSW 4.6 mph - N/A   Light Drizzle
7:44 PM 68.0 °F 68.0 °F 100% 29.84 in 8.0 mi Variable 1.2 mph - N/A Rain , Thunderstorm Light Thunderstorms and Rain
7:48 PM 68.0 °F 68.0 °F 100% 29.84 in 10.0 mi NW 5.8 mph - N/A Thunderstorm Thunderstorm
7:58 PM 68.9 °F 68.9 °F 100% 29.86 in 10.0 mi NW 10.4 mph - 0.04 in Thunderstorm Thunderstorm
7:59 PM 69.8 °F 68.0 °F 94% 29.86 in 10.0 mi NNW 11.5 mph - N/A   Mostly Cloudy
8:04 PM 69.8 °F 68.0 °F 94% 29.86 in 10.0 mi NNW 16.1 mph 19.6 mph N/A   Mostly Cloudy
8:13 PM 68.0 °F 66.2 °F 94% 29.86 in 10.0 mi NNW 12.7 mph 19.6 mph N/A Rain Light Rain
8:23 PM 68.0 °F 66.2 °F 94% 29.87 in 10.0 mi NNW 11.5 mph - N/A   Mostly Cloudy
8:58 PM 64.6 °F 64.2 °F 99% 29.88 in 10.0 mi WNW 6.9 mph - 0.00 in   Partly Cloudy
9:58 PM 61.0 °F 61.0 °F 100% 29.89 in 10.0 mi West 5.8 mph - N/A   Clear
10:38 PM 59.0 °F 59.0 °F 100% 29.86 in 9.0 mi NW 3.5 mph - N/A   Clear
10:53 PM 59.0 °F 59.0 °F 100% 29.87 in 4.0 mi West 3.5 mph - N/A   Clear
10:58 PM 59.0 °F 59.0 °F 100% 29.88 in 3.0 mi SW 3.5 mph - N/A   Clear
11:03 PM 59.0 °F 59.0 °F 100% 29.88 in 5.0 mi SSE 4.6 mph - N/A   Clear
11:58 PM 58.5 °F 58.5 °F 100% 29.88 in 10.0 mi Calm Calm - N/A   Clear